Theta_e
306 307 309 310 311 311 312 313 323 338 342 342 341 339 339 339 340 339 337 336 337 339 339 337 335 334 335 332 330 330 329 327 327 327 327 326 326 326 327 327 327 327 325
303 305 307 308 309 309 311 313 319 332 341 341 342 340 339 339 339 339 339 338 338 338 339 337 334 333 332 331 330 330 328 328 327 327 325 325 323 325 326 326 326 326 325
308 304 304 305 309 310 310 310 317 330 338 340 341 340 339 338 337 337 338 339 339 339 339 337 336 334 332 331 331 329 329 328 328 327 326 325 325 322 323 325 325 325 324
315 314 317 318 318 320 323 319 312 329 336 340 340 338 338 337 338 337 339 338 339 339 338 337 335 334 333 332 330 329 328 328 327 327 326 324 322 324 323 322 322 323 323
313 312 313 313 313 315 320 324 315 325 335 340 339 338 337 337 336 336 337 337 337 337 337 337 335 333 332 332 331 329 328 328 327 327 326 325 322 322 322 323 321 321 321
308 309 309 310 311 311 313 321 328 327 336 339 339 337 337 336 335 335 335 335 334 336 336 335 333 334 333 331 330 329 329 328 327 327 326 325 323 321 322 322 322 321 320
304 306 306 306 307 306 308 313 328 338 338 340 339 338 337 335 335 335 335 334 333 333 333 333 332 333 332 331 330 329 328 328 327 326 326 325 323 322 322 322 322 321 319
301 302 303 303 302 303 304 307 311 318 338 338 337 337 336 335 334 334 333 332 332 331 332 331 332 332 331 331 330 329 328 328 327 326 326 324 323 321 321 321 321 318 317
297 297 298 299 300 300 300 303 306 310 321 337 336 334 335 334 334 333 332 332 332 332 332 330 330 330 330 330 329 328 328 327 327 326 325 325 324 322 320 320 320 320 320
295 294 295 296 296 298 298 300 303 305 309 327 333 332 333 333 332 332 332 332 331 330 329 329 329 328 327 327 327 327 326 325 326 326 325 325 324 322 320 320 319 319 319
293 293 293 294 294 295 296 297 300 302 305 312 326 331 332 332 332 331 330 330 330 329 329 328 327 326 325 327 327 326 326 326 326 325 325 325 324 322 320 320 320 319 319
292 292 292 292 292 293 294 295 297 300 302 306 318 328 331 332 331 330 329 329 329 328 328 327 326 325 325 325 325 326 325 325 325 325 325 324 324 322 321 320 320 319 319
291 291 290 291 291 291 292 293 294 296 299 304 314 325 327 327 327 328 328 327 325 324 323 322 321 322 322 321 322 322 324 325 325 325 325 324 324 323 322 321 320 320 320
290 289 289 290 290 290 290 291 292 293 296 299 301 311 320 326 326 325 324 323 321 321 321 321 320 319 318 319 319 320 321 322 323 325 325 325 324 323 322 321 320 320 320
288 288 288 289 289 289 288 289 290 292 293 295 296 299 305 324 324 322 321 321 321 320 320 319 318 318 318 317 317 317 320 323 324 324 324 324 324 323 322 321 320 321 320
287 287 287 287 288 288 287 287 287 289 290 292 293 294 297 304 311 319 320 320 320 319 319 318 317 316 315 316 317 317 319 322 323 323 323 324 324 323 322 321 321 321 320
286 286 286 286 287 287 286 285 286 286 287 289 290 291 292 292 294 298 304 305 309 312 312 310 309 309 310 314 316 316 317 318 317 318 320 322 322 323 320 320 321 319 320
285 285 285 285 286 285 285 284 284 284 285 285 286 288 290 290 289 290 290 292 294 296 299 301 300 301 301 305 309 312 315 313 312 310 310 314 314 317 316 316 317 316 315
284 283 283 284 284 285 284 283 282 283 283 284 284 284 287 288 289 287 287 288 288 289 289 290 294 295 295 297 302 306 307 305 303 304 305 305 309 307 317 317 310 303 300
283 282 282 282 283 284 284 283 282 281 281 282 283 283 284 285 286 287 287 286 286 286 286 287 287 289 290 292 296 299 299 295 293 295 296 298 299 302 307 310 304 293 290
281 280 281 281 281 282 283 284 283 281 280 280 281 282 283 283 283 284 285 286 286 286 285 285 285 286 286 288 290 292 292 289 288 288 287 289 292 294 296 295 294 291 290
280 279 279 279 280 281 282 282 283 282 281 280 280 281 282 282 283 283 283 283 284 285 285 285 285 284 284 284 284 286 286 286 285 284 284 284 286 285 287 288 288 288 288
278 279 278 278 278 279 280 281 281 282 281 280 280 280 280 281 282 282 283 283 283 284 284 285 285 285 284 284 283 283 283 284 282 282 282 284 285 285 285 285 286 286 285
277 277 278 277 277 278 279 279 281 282 281 281 280 280 279 280 280 281 281 282 283 283 283 284 284 284 284 284 283 283 282 283 283 282 282 283 283 283 283 283 282 282 281
276 276 276 277 277 278 279 280 280 281 281 280 280 281 280 279 279 279 279 280 281 282 283 282 282 283 283 282 282 282 282 281 281 281 280 279 278 278 278 278 278 279 279
275 276 276 276 276 277 278 279 280 280 280 280 280 279 279 279 279 279 279 278 278 279 280 281 281 280 281 281 281 281 281 281 281 279 277 276 276 276 276 275 275 276 276
Wind_Speed
19 22 28 35 31 29 33 40 38 41 39 34 32 28 29 36 37 37 37 37 37 38 37 36 34 34 31 30 31 28 29 26 27 17 17 22 28 28 30 32 34 35 33
11 14 22 30 27 27 22 33 37 41 40 36 37 29 35 33 41 40 40 40 38 39 39 38 35 34 30 30 32 30 21 22 27 14 7 3 4 20 31 33 34 37 36
16 13 13 14 16 18 18 19 32 35 40 38 30 23 24 18 21 29 34 39 40 40 40 39 38 35 34 33 33 32 27 20 23 29 7 3 3 3 10 25 30 33 35
18 16 12 7 12 15 14 11 27 37 39 38 34 33 33 25 27 35 37 35 39 42 38 39 37 35 34 32 34 33 31 24 19 23 30 12 5 3 2 12 23 27 34
16 17 15 16 17 20 19 15 18 34 32 37 36 35 28 29 24 27 32 34 37 39 38 39 36 35 35 34 34 32 32 32 24 24 16 22 13 15 4 4 7 19 28
17 17 21 19 18 21 23 21 9 27 32 36 35 34 34 29 26 26 27 29 30 35 38 38 36 36 35 34 35 34 33 32 30 27 28 23 14 13 8 3 12 17 19
16 16 16 15 20 23 28 25 16 13 24 29 33 32 29 31 34 33 30 26 26 27 35 38 37 37 36 34 33 33 33 34 32 31 28 29 28 21 26 17 13 6 8
16 16 17 16 20 24 27 27 26 20 15 22 24 27 29 31 27 28 26 27 29 29 28 34 35 36 34 34 34 32 34 34 33 33 33 28 30 27 24 19 21 3 5
19 19 16 19 24 25 26 26 27 25 18 19 23 24 28 30 31 30 26 26 29 31 32 31 31 31 30 30 31 32 30 29 33 34 33 33 30 33 31 25 26 17 7
17 17 16 20 25 27 27 28 27 25 23 6 18 22 27 29 27 26 27 28 28 29 29 28 26 25 26 28 30 30 31 30 32 35 34 33 31 34 34 32 29 24 14
17 15 14 24 27 27 28 27 28 25 26 19 2 18 24 22 22 22 24 25 26 25 23 24 22 22 25 27 30 30 30 32 33 31 33 35 32 33 33 35 33 27 26
17 16 18 24 23 26 29 29 29 29 28 27 15 9 17 20 21 22 22 20 19 18 17 17 16 18 22 24 29 30 33 35 35 35 35 38 38 35 35 32 33 33 31
18 20 19 18 24 27 28 29 31 29 29 31 26 4 14 19 21 21 20 17 14 12 11 13 16 17 18 20 26 28 28 35 35 31 33 37 36 35 35 33 31 31 28
18 18 18 17 25 28 28 29 30 31 32 30 27 21 8 15 18 17 17 13 9 10 10 10 10 9 11 14 19 23 29 31 34 34 38 39 39 38 36 34 31 30 28
19 17 17 17 25 27 28 30 31 32 31 29 28 26 21 5 9 10 11 9 7 5 6 6 6 6 8 10 15 18 22 28 24 26 29 32 32 38 42 39 33 33 28
18 18 18 18 23 28 28 28 30 30 30 28 26 28 26 20 16 8 6 7 10 9 8 7 7 5 4 7 8 8 11 16 26 24 27 30 35 41 44 42 40 36 30
15 17 18 19 24 27 28 28 29 28 27 26 34 31 33 30 26 16 10 8 7 9 8 6 2 0 5 8 10 5 5 3 1 5 22 25 23 35 33 35 33 31 31
17 16 19 23 26 29 28 26 28 30 30 32 32 34 31 33 32 30 27 19 11 12 10 8 7 6 8 7 5 4 2 8 10 9 8 22 25 28 30 28 26 14 13
15 18 22 24 27 28 29 27 30 30 31 32 33 32 30 30 32 32 31 29 24 21 17 15 13 12 14 13 6 3 9 11 12 11 8 7 9 13 15 16 16 14 11
20 21 24 25 29 29 28 30 30 31 32 31 31 34 33 30 29 29 32 29 28 27 21 27 25 23 20 17 9 8 13 18 20 18 15 12 8 7 11 15 21 22 17
20 23 24 26 27 29 27 30 31 32 29 30 33 36 35 35 32 30 32 28 33 28 25 26 31 33 29 27 19 16 18 21 25 27 27 25 15 10 12 16 19 24 22
20 23 21 24 27 30 28 28 31 29 31 33 34 36 35 34 36 36 34 33 33 26 26 23 26 30 33 32 30 28 26 26 30 28 29 31 33 34 31 29 30 27 25
19 21 21 21 27 31 29 27 28 26 29 33 34 33 34 34 35 35 32 30 30 26 26 22 25 26 28 26 31 32 28 32 33 29 28 30 34 33 32 28 27 26 26
20 21 22 24 25 28 30 29 29 28 25 27 29 30 30 31 32 33 33 32 30 24 24 22 24 25 29 28 27 27 26 29 31 29 32 34 33 33 32 29 29 28 27
18 20 18 19 22 27 31 31 30 27 24 23 24 24 24 28 27 31 32 29 33 31 23 23 24 22 24 25 23 23 20 23 24 25 26 30 29 28 28 29 28 26 26
15 17 19 21 24 28 30 29 29 27 24 22 22 23 22 23 23 22 22 25 30 29 29 27 25 26 24 20 19 18 17 18 19 27 24 23 24 23 23 23 24 24 22
Wind_Direction
273 273 270 276 270 266 251 232 213 212 207 198 193 196 196 203 209 214 216 217 214 213 213 215 213 210 201 198 200 200 206 210 215 208 224 228 228 225 220 216 212 209 208
276 272 271 273 270 271 263 235 218 210 203 198 198 197 200 204 209 208 212 214 215 214 213 212 208 211 203 203 198 200 195 206 207 210 180 216 192 211 205 201 206 208 210
301 272 262 266 282 282 282 250 228 210 202 200 194 191 184 191 184 195 203 214 214 215 215 215 216 213 209 205 207 206 201 197 205 210 192 183 186 139 193 190 199 203 206
1 3 353 1 359 331 306 277 226 212 204 195 185 184 182 186 197 198 204 203 211 213 214 214 216 218 216 210 210 213 211 200 196 205 215 220 155 163 161 193 203 197 204
8 352 348 342 351 349 329 302 226 212 199 191 191 188 189 195 190 192 192 193 201 211 214 217 214 216 214 213 219 215 211 211 207 209 207 217 210 223 176 167 166 198 208
13 356 347 348 353 356 352 352 202 209 195 190 190 191 188 183 177 181 190 192 197 205 215 217 220 223 221 217 220 222 218 213 216 215 217 211 200 200 187 159 181 194 205
23 354 340 349 351 4 5 1 21 210 198 192 189 192 192 186 186 182 188 190 194 198 208 212 212 218 221 222 224 221 218 215 219 222 216 219 210 219 208 185 176 178 183
31 348 347 347 346 5 5 6 14 10 219 207 205 193 187 194 191 184 183 190 202 207 206 220 221 221 224 225 229 224 220 220 224 217 218 214 206 206 199 182 171 138 179
29 352 342 344 358 3 2 4 8 4 13 209 209 200 191 194 194 194 199 195 203 210 217 221 223 227 231 233 229 220 222 229 227 225 220 214 206 208 206 201 184 170 181
23 347 349 354 0 3 358 6 11 5 359 16 207 202 196 201 201 200 204 207 211 215 214 215 219 223 231 234 230 230 231 226 223 220 212 213 210 206 206 203 195 194 185
10 352 343 7 2 360 7 4 6 2 3 16 349 201 200 202 205 205 207 207 212 214 213 216 215 222 232 234 235 234 233 229 229 224 211 210 212 203 203 200 202 210 206
8 348 5 7 4 3 7 4 1 4 2 4 17 202 200 196 193 195 199 201 202 200 205 210 219 231 242 247 245 240 239 233 232 228 219 217 208 203 200 196 198 206 207
2 4 5 4 4 5 7 4 3 3 8 12 14 122 163 168 175 172 162 163 170 187 202 221 236 236 246 255 259 259 257 241 238 240 216 207 204 201 196 195 198 204 213
9 2 3 5 5 6 4 4 6 9 14 11 15 33 29 144 155 161 160 167 176 187 197 215 237 250 261 269 270 270 266 258 247 245 213 212 205 204 195 192 194 202 198
10 4 2 2 7 6 6 8 11 12 14 17 12 18 14 113 166 164 160 168 164 180 196 208 219 237 251 271 286 281 269 248 234 213 206 202 200 205 196 191 188 184 172
6 1 5 5 10 7 7 8 12 15 15 23 19 21 25 47 58 87 129 142 153 157 167 180 181 210 249 278 287 314 295 247 230 216 220 217 213 212 201 193 192 192 174
8 8 4 4 5 7 10 13 14 17 23 25 27 27 31 32 32 41 64 72 100 135 126 122 148 111 320 293 281 327 16 45 7 216 198 203 202 203 186 174 174 185 189
8 6 4 7 12 15 16 19 23 25 27 28 25 27 34 40 33 36 32 38 51 75 84 91 70 53 15 348 307 273 99 87 76 51 110 155 158 163 158 156 159 169 194
7 6 9 12 15 19 19 24 28 29 31 30 29 26 30 41 48 35 32 33 27 51 62 58 68 57 37 11 354 143 113 96 79 70 61 97 143 146 168 166 151 141 131
15 10 15 20 22 18 26 33 31 29 27 27 31 35 34 35 42 52 47 34 37 34 37 58 52 57 56 46 57 101 110 95 85 75 70 69 108 133 156 164 156 130 123
19 17 22 26 20 19 26 34 34 32 27 33 40 42 43 43 42 44 51 54 47 31 32 46 52 52 52 59 67 80 91 90 81 73 65 73 82 111 130 138 138 127 129
18 20 24 25 21 24 26 29 32 29 36 43 43 43 44 46 49 48 44 42 52 41 30 29 50 48 51 54 61 78 84 86 80 75 76 76 88 84 95 106 115 120 117
21 20 24 27 28 28 27 29 25 30 35 42 43 42 46 47 49 47 44 42 35 40 40 25 38 38 39 44 56 63 77 87 81 82 88 92 93 94 90 95 105 107 108
23 20 24 26 23 28 34 32 35 42 37 39 39 41 43 43 45 48 47 42 39 32 38 35 41 41 42 42 54 60 65 82 88 86 87 90 90 90 92 90 88 92 94
34 33 28 25 21 30 38 39 37 38 36 38 39 38 41 45 46 49 47 48 47 47 45 43 45 46 50 48 53 61 64 77 84 89 82 71 67 67 69 77 85 89 91
33 34 30 27 22 33 37 39 39 38 37 35 33 38 41 45 48 51 52 54 54 52 53 55 55 55 59 56 59 65 69 78 87 78 65 63 66 66 67 67 71 80 84